Location: Marcé
(47.5801°N, 0.3280°W)
Time: 20:21:55
(UTC+01:00)

Altair - Pass Details

Date: 15 December 2021
Orbit: 1501 x 1683 km, 47.2° (Epoch: 20 January)

Event Time Altitude Azimuth Distance (km) Brightness Sun altitude
Rises 19:57:50 0° 291° (WNW) 4,726 11.0 -27.1°
Reaches altitude 10° 20:01:12 10° 283° (WNW) 3,717 10.4 -27.7°
Maximum altitude 20:09:25 37° 221° (SW) 2,198 8.6 -29.0°
Drops below altitude 10° 20:17:30 10° 158° (SSE) 3,643 9.3 -30.4°
Enters shadow 20:17:48 - 158° (SSE) 3,726 9.3 -30.4°
Sets 20:20:47 0° 151° (SSE) 4,621 - -30.9°
